This is the latest recevied weather packets stored in our database for station/object YO8PIC-13. If no packets are shown the sender has not sent any weather packets the latest 10 day(s).
| Time | Temp. | Humidity | Pressure | Rain* | Wind** | Luminosity | Snow |
|---|---|---|---|---|---|---|---|
| 1787835133 | 22.78° C | 63% | 1024.6 hPa | - | - | - | - |
| 1787834534 | 22.78° C | 64% | 1024.6 hPa | - | - | - | - |
| 1787833933 | 22.22° C | 62% | 1024.6 hPa | - | - | - | - |
| 1787833334 | 21.11° C | 68% | 1024.8 hPa | - | - | - | - |
| 1787832733 | 20.56° C | 70% | 1024.8 hPa | - | - | - | - |
| 1787832133 | 21.11° C | 72% | 1024.7 hPa | - | - | - | - |
| 1787831533 | 20° C | 76% | 1024.8 hPa | - | - | - | - |
| 1787830933 | 20° C | 78% | 1024.8 hPa | - | - | - | - |
| 1787830333 | 20° C | 82% | 1024.9 hPa | - | - | - | - |
| 1787829735 | 20.56° C | 76% | 1024.8 hPa | - | - | - | - |
| 1787829134 | 20.56° C | 74% | 1024.8 hPa | - | - | - | - |
| 1787828533 | 21.67° C | 67% | 1024.8 hPa | - | - | - | - |
| 1787827932 | 22.22° C | 65% | 1024.7 hPa | - | - | - | - |
| 1787827333 | 21.67° C | 66% | 1024.8 hPa | - | - | - | - |
| 1787826733 | 22.78° C | 64% | 1024.9 hPa | - | - | - | - |
| 1787826133 | 22.78° C | 64% | 1024.8 hPa | - | - | - | - |
| 1787825533 | 24.44° C | 58% | 1024.7 hPa | - | - | - | - |
| 1787824934 | 22.22° C | 65% | 1024.7 hPa | - | - | - | - |
| 1787824333 | 21.67° C | 70% | 1024.8 hPa | - | - | - | - |
| 1787823734 | 23.33° C | 62% | 1024.8 hPa | - | - | - | - |
| 1787823133 | 24.44° C | 57% | 1024.6 hPa | - | - | - | - |
| 1787822533 | 23.89° C | 61% | 1024.7 hPa | - | - | - | - |
| 1787821934 | 22.22° C | 68% | 1024.8 hPa | - | - | - | - |
| 1787821332 | 21.11° C | 69% | 1024.9 hPa | - | - | - | - |
| 1787820732 | 23.89° C | 61% | 1024.7 hPa | - | - | - | - |
* Rain since midnight (hover to see other rain measurements)
** Current wind speed in m/s (hover to see current wind gust speed)